Location: Gälforsberget
(66.6500°N, 22.4167°E)
Time: 02:01:16
(UTC+00:00)

Cosmos 1980 Rocket - Pass Details

Date: 11 April 2026
Orbit: 826 x 850 km, 71.0° (Epoch: 20 May)

Event Time Altitude Azimuth Distance (km) Brightness Sun altitude
Rises 19:58:32 0° 269° (W) 3,401 5.9 -9.9°
Reaches altitude 10° 20:01:01 10° 273° (W) 2,470 5.2 -10.0°
Maximum altitude 20:06:37 57° 352° (N) 995 2.9 -10.4°
Drops below altitude 10° 20:12:15 10° 72° (ENE) 2,485 4.5 -10.7°
Sets 20:14:46 0° 77° (ENE) 3,423 5.1 -10.8°
